Aérodrome :
LOGIN :

S'inscrire | Disclaimer

   EN    FR    IT 

 










Légende :    VFR   VFR Marginal   IFR   IFR Intensif   IFR Très Intensif
Visi : 
Plafond : 
>= 8 km
>= 3000ft
5 à 8 km
1000 à 3000 ft
1500m à 5 km
500 à 1000 ft
800 à 1500m
200 à 500 ft
< 800m
< 200 ft
Symboles :   Orages  Brouillard  Fortes neiges  Fortes précipitations  Vent > 20 kt
SIGMETs :   Divers  Orages  Givrage  Turbulence  Onde Orograph.  Cendres Volcan.







- Altitude de l'aérodrome : 1416 ft
- Code IATA : ZRH


LSZH - Zurich

DERNIER METAR :
  • 260050Z 02008KT CAVOK M08/M15 Q1018 NOSIG

METARs EXPIRÉS :
  • 252350Z 01007KT CAVOK M08/M15 Q1018 NOSIG
  • 252320Z 01006KT CAVOK M08/M15 Q1018 NOSIG
  • 252250Z 35003KT CAVOK M08/M15 Q1018 NOSIG
  • 252220Z 05006KT 340V090 CAVOK M07/M15 Q1018 NOSIG

TAF TAF LSZH
Valide du 26 à 00h jusqu'au 27 à 06h UTC


252325Z 2600/2706 04008KT CAVOK TXM06/2614Z TNM11/2606Z TNM12/2706Z
BECMG 2602/2606 9999 SCT040
BECMG 2607/2610 05013KT
TEMPO 2608/2619 05017G30KT
BECMG 2620/2622 04007KT
ATIS : +41 43 816 2295 (DEP) +41 43 816 2294 (ARR)
Pas de NOTAMs connus pour ce terrain.



MET'MAP, la Météo Aéronautique d'un coup d'oeil ! - Copyright ORBIFLY Décembre 2007 - Disclaimer

ORBIFLY MET'MAP TEAM :

Programmation & Développement : Alexandra Zaïnal
Conception & Développement : Baudouin d'Aumeries
Co-Programmation & Développement : Marc-Olivier Méhu
Soutien technique & logistique : Manuel Goepfert

Contact : metmap@orbifly.com




SOURCES & CREDITS :

   NOAA